Location: Fenton
(44.3980°N, 108.5746°W)
Time: 06:14:07
(UTC+00:00)

N. Korean satellite - Visible Passes

Search period start: 27 January 2022 00:00
Search period end: 06 February 2022 00:00
Orbit: 447 x 490 km, 97.3° (Epoch: 26 January)

Date Brightness Start Highest point End Pass type
(mag) Time Alt. Az. Time Alt. Az. Time Alt. Az.
27 Jan 9.4 11:36:09 10° NE 11:38:36 17° E 11:39:00 17° E visible
27 Jan 7.2 13:08:32 10° N 13:11:50 33° WNW 13:13:04 25° WSW visible
28 Jan 6.4 12:39:03 10° N 12:42:42 77° WNW 12:44:00 38° SSW visible
29 Jan 10.0 00:49:31 10° WSW 00:50:55 12° W 00:52:19 10° WNW visible
29 Jan 7.7 12:09:56 10° NNE 12:13:26 43° E 12:14:59 27° SSE visible
29 Jan 8.3 13:44:14 10° NNW 13:46:11 14° WNW 13:48:09 10° W visible
30 Jan 9.2 11:41:20 10° NE 11:44:02 20° E 11:45:59 13° SE visible
30 Jan 7.4 13:14:01 10° N 13:17:11 28° WNW 13:20:03 12° SW visible
31 Jan 6.4 12:44:25 10° N 12:48:02 65° WNW 12:51:10 13° SSW visible
01 Feb 10.4 00:55:40 10° W 00:56:16 10° W 00:56:52 10° W visible
01 Feb 7.4 12:15:10 10° NNE 12:18:44 51° E 12:22:14 10° S visible
01 Feb 8.5 13:49:53 10° NW 13:51:25 12° WNW 13:52:57 10° W visible
02 Feb 9.0 11:46:24 10° NE 11:49:18 22° E 11:52:10 10° SSE visible
02 Feb 7.6 13:19:22 10° NNW 13:22:23 25° WNW 13:25:21 10° SW visible
03 Feb 10.0 11:19:19 10° E 11:19:43 10° E 11:20:08 10° E visible
03 Feb 6.6 12:49:38 10° N 12:53:12 55° WNW 12:56:43 10° SSW visible
04 Feb 7.0 12:20:17 10° NNE 12:23:53 60° E 12:27:26 10° S visible
04 Feb 8.6 13:55:37 10° NW 13:56:30 11° WNW 13:57:22 10° WNW visible
05 Feb 8.8 11:51:22 10° NE 11:54:25 25° E 11:57:27 10° SSE visible
05 Feb 7.8 13:24:36 10° NNW 13:27:25 22° WNW 13:30:14 10° WSW visible
